timestamp,wind_dir_avg,wind_spd_max_dir,wind_spd_avg,wind_spd_gust,battery_voltage,lat,long
2018-02-27 00:00:00+00:00,171.0,171.0,8.03,8.93,,47.59359,-54.27349
2018-02-27 00:10:00+00:00,168.0,165.0,8.27,9.2,,47.59359,-54.27349
2018-02-27 00:20:00+00:00,174.0,178.0,7.93,8.71,,47.59359,-54.27349
2018-02-27 00:30:00+00:00,150.0,146.0,7.81,8.68,,47.59359,-54.27349
2018-02-27 00:40:00+00:00,168.0,166.0,6.88,8.35,,47.59359,-54.27349
2018-02-27 00:50:00+00:00,166.0,168.0,8.19,9.58,,47.59359,-54.27349
2018-02-27 01:00:00+00:00,160.0,154.0,8.19,9.63,,47.59359,-54.27349
2018-02-27 01:10:00+00:00,166.0,164.0,6.77,7.83,,47.59359,-54.27349
2018-02-27 01:20:00+00:00,163.0,164.0,7.65,8.79,,47.59359,-54.27349
2018-02-27 01:30:00+00:00,164.0,162.0,7.61,8.1,,47.59359,-54.27349
2018-02-27 01:40:00+00:00,164.0,165.0,7.44,8.6,,47.59359,-54.27349
2018-02-27 01:50:00+00:00,170.0,169.0,7.56,8.43,,47.59359,-54.27349
2018-02-27 02:00:00+00:00,157.0,157.0,6.61,7.61,,47.59359,-54.27349
2018-02-27 02:10:00+00:00,165.0,173.0,6.7,7.72,,47.59359,-54.27349
2018-02-27 02:20:00+00:00,160.0,158.0,8.11,9.71,,47.59359,-54.27349
2018-02-27 02:30:00+00:00,156.0,155.0,8.34,9.24,,47.59359,-54.27349
2018-02-27 02:40:00+00:00,161.0,160.0,7.86,8.57,,47.59359,-54.27349
2018-02-27 02:50:00+00:00,162.0,160.0,6.72,8.05,,47.59359,-54.27349
2018-02-27 03:00:00+00:00,176.0,176.0,7.33,9.33,,47.59359,-54.27349
2018-02-27 03:10:00+00:00,150.0,144.0,7.24,8.88,,47.59359,-54.27349
2018-02-27 03:20:00+00:00,159.0,157.0,10.73,12.86,,47.59359,-54.27349
2018-02-27 03:30:00+00:00,154.0,157.0,8.21,9.39,,47.59359,-54.27349
2018-02-27 03:40:00+00:00,153.0,148.0,6.84,8.0,,47.59359,-54.27349
2018-02-27 03:50:00+00:00,164.0,175.0,6.72,8.58,,47.59359,-54.27349
2018-02-27 04:00:00+00:00,158.0,158.0,7.32,8.17,,47.59359,-54.27349
2018-02-27 04:10:00+00:00,151.0,152.0,7.33,8.33,,47.59359,-54.27349
2018-02-27 04:20:00+00:00,145.0,145.0,7.63,9.96,,47.59359,-54.27349
2018-02-27 04:30:00+00:00,154.0,162.0,7.2,8.17,,47.59359,-54.27349
2018-02-27 04:40:00+00:00,148.0,149.0,6.38,7.14,,47.59359,-54.27349
2018-02-27 04:50:00+00:00,149.0,152.0,8.17,9.46,,47.59359,-54.27349
2018-02-27 05:00:00+00:00,146.0,147.0,9.12,10.73,,47.59359,-54.27349
2018-02-27 05:10:00+00:00,147.0,145.0,8.12,9.56,,47.59359,-54.27349
2018-02-27 05:20:00+00:00,147.0,156.0,6.68,8.21,,47.59359,-54.27349
2018-02-27 05:30:00+00:00,128.0,132.0,4.2,5.79,,47.59359,-54.27349
2018-02-27 05:40:00+00:00,126.0,133.0,4.35,6.95,,47.59359,-54.27349
2018-02-27 05:50:00+00:00,101.0,95.0,2.93,4.52,,47.59359,-54.27349
2018-02-27 06:00:00+00:00,98.0,106.0,3.5,5.86,,47.59359,-54.27349
2018-02-27 06:10:00+00:00,95.0,95.0,3.95,6.05,,47.59359,-54.27349
2018-02-27 06:20:00+00:00,97.0,90.0,4.39,6.56,,47.59359,-54.27349
2018-02-27 06:30:00+00:00,92.0,83.0,5.08,10.41,,47.59359,-54.27349
2018-02-27 06:40:00+00:00,93.0,105.0,5.2,7.86,,47.59359,-54.27349
2018-02-27 06:50:00+00:00,89.0,93.0,5.93,7.69,,47.59359,-54.27349
2018-02-27 07:00:00+00:00,105.0,108.0,5.3,8.26,,47.59359,-54.27349
2018-02-27 07:10:00+00:00,109.0,94.0,5.98,11.69,,47.59359,-54.27349
2018-02-27 07:20:00+00:00,105.0,91.0,7.07,14.6,,47.59359,-54.27349
2018-02-27 07:30:00+00:00,127.0,131.0,6.74,10.49,,47.59359,-54.27349
2018-02-27 07:40:00+00:00,106.0,129.0,4.59,7.89,,47.59359,-54.27349
2018-02-27 07:50:00+00:00,106.0,124.0,4.53,7.64,,47.59359,-54.27349
2018-02-27 08:00:00+00:00,111.0,99.0,5.91,10.28,,47.59359,-54.27349
2018-02-27 08:10:00+00:00,114.0,115.0,5.25,8.02,,47.59359,-54.27349
2018-02-27 08:20:00+00:00,131.0,130.0,6.57,10.04,,47.59359,-54.27349
2018-02-27 08:30:00+00:00,131.0,140.0,8.71,11.11,,47.59359,-54.27349
2018-02-27 08:40:00+00:00,131.0,128.0,8.63,10.8,,47.59359,-54.27349
2018-02-27 08:50:00+00:00,131.0,136.0,6.57,8.66,,47.59359,-54.27349
2018-02-27 09:00:00+00:00,129.0,125.0,6.81,9.01,,47.59359,-54.27349
2018-02-27 09:10:00+00:00,115.0,158.0,4.93,7.75,,47.59359,-54.27349
2018-02-27 09:20:00+00:00,127.0,125.0,6.78,11.11,,47.59359,-54.27349
2018-02-27 09:30:00+00:00,116.0,96.0,6.53,14.01,,47.59359,-54.27349
2018-02-27 09:40:00+00:00,117.0,89.0,6.97,12.03,,47.59359,-54.27349
2018-02-27 09:50:00+00:00,108.0,104.0,5.13,8.1,,47.59359,-54.27349
2018-02-27 10:00:00+00:00,107.0,108.0,5.58,8.24,,47.59359,-54.27349
2018-02-27 10:10:00+00:00,107.0,108.0,4.14,6.82,,47.59359,-54.27349
2018-02-27 10:20:00+00:00,110.0,117.0,5.66,7.57,,47.59359,-54.27349
2018-02-27 10:30:00+00:00,113.0,126.0,5.01,7.57,,47.59359,-54.27349
2018-02-27 10:40:00+00:00,120.0,140.0,5.4,9.19,,47.59359,-54.27349
2018-02-27 10:50:00+00:00,114.0,98.0,4.39,7.77,,47.59359,-54.27349
2018-02-27 11:00:00+00:00,118.0,140.0,5.64,11.04,,47.59359,-54.27349
2018-02-27 11:10:00+00:00,113.0,114.0,5.23,8.59,,47.59359,-54.27349
2018-02-27 11:20:00+00:00,108.0,131.0,5.15,8.24,,47.59359,-54.27349
2018-02-27 11:30:00+00:00,97.0,81.0,4.65,7.54,,47.59359,-54.27349
2018-02-27 11:40:00+00:00,93.0,107.0,5.05,7.52,,47.59359,-54.27349
2018-02-27 11:50:00+00:00,91.0,104.0,5.1,7.34,,47.59359,-54.27349
2018-02-27 12:00:00+00:00,89.0,76.0,5.32,7.04,,47.59359,-54.27349
2018-02-27 12:10:00+00:00,92.0,80.0,5.41,7.59,,47.59359,-54.27349
2018-02-27 12:20:00+00:00,90.0,83.0,5.57,7.53,,47.59359,-54.27349
2018-02-27 12:30:00+00:00,88.0,74.0,5.4,7.47,,47.59359,-54.27349
2018-02-27 12:40:00+00:00,86.0,81.0,5.7,7.54,,47.59359,-54.27349
2018-02-27 12:50:00+00:00,93.0,102.0,4.76,6.79,,47.59359,-54.27349
2018-02-27 13:00:00+00:00,88.0,99.0,5.04,7.22,,47.59359,-54.27349
2018-02-27 13:10:00+00:00,89.0,92.0,4.31,6.26,,47.59359,-54.27349
2018-02-27 13:20:00+00:00,88.0,75.0,4.85,6.84,,47.59359,-54.27349
2018-02-27 13:30:00+00:00,85.0,91.0,5.99,7.53,,47.59359,-54.27349
2018-02-27 13:40:00+00:00,84.0,80.0,5.68,6.85,,47.59359,-54.27349
2018-02-27 13:50:00+00:00,77.0,72.0,5.88,6.45,,47.59359,-54.27349
2018-02-27 14:00:00+00:00,80.0,81.0,6.24,7.43,,47.59359,-54.27349
2018-02-27 14:10:00+00:00,77.0,72.0,5.47,6.35,,47.59359,-54.27349
2018-02-27 14:20:00+00:00,87.0,84.0,5.14,6.22,,47.59359,-54.27349
2018-02-27 14:30:00+00:00,82.0,82.0,4.21,5.38,,47.59359,-54.27349
2018-02-27 14:40:00+00:00,86.0,74.0,3.29,4.55,,47.59359,-54.27349
2018-02-27 14:50:00+00:00,101.0,118.0,3.31,6.18,,47.59359,-54.27349
2018-02-27 15:00:00+00:00,132.0,124.0,6.9,10.14,,47.59359,-54.27349
2018-02-27 15:10:00+00:00,130.0,132.0,7.02,8.85,,47.59359,-54.27349
2018-02-27 15:20:00+00:00,132.0,135.0,6.75,7.91,,47.59359,-54.27349
2018-02-27 15:30:00+00:00,132.0,128.0,8.22,9.37,,47.59359,-54.27349
2018-02-27 15:40:00+00:00,131.0,133.0,9.24,10.65,,47.59359,-54.27349
2018-02-27 15:50:00+00:00,132.0,132.0,8.6,11.34,,47.59359,-54.27349
2018-02-27 16:00:00+00:00,138.0,135.0,8.25,10.05,,47.59359,-54.27349
2018-02-27 16:10:00+00:00,135.0,134.0,8.81,10.67,,47.59359,-54.27349
2018-02-27 16:20:00+00:00,136.0,125.0,9.18,10.89,,47.59359,-54.27349
2018-02-27 16:30:00+00:00,131.0,130.0,6.84,9.6,,47.59359,-54.27349
2018-02-27 16:40:00+00:00,123.0,126.0,5.9,8.3,,47.59359,-54.27349
2018-02-27 16:50:00+00:00,129.0,131.0,6.04,9.4,,47.59359,-54.27349
2018-02-27 17:00:00+00:00,130.0,140.0,6.13,8.31,,47.59359,-54.27349
2018-02-27 17:10:00+00:00,122.0,136.0,4.86,8.37,,47.59359,-54.27349
2018-02-27 17:20:00+00:00,105.0,108.0,5.84,10.68,,47.59359,-54.27349
2018-02-27 17:30:00+00:00,107.0,87.0,5.25,7.28,,47.59359,-54.27349
2018-02-27 17:40:00+00:00,112.0,133.0,5.45,8.05,,47.59359,-54.27349
2018-02-27 17:50:00+00:00,107.0,119.0,4.44,7.11,,47.59359,-54.27349
2018-02-27 18:00:00+00:00,107.0,142.0,3.9,6.86,,47.59359,-54.27349
2018-02-27 18:10:00+00:00,86.0,72.0,4.27,6.84,,47.59359,-54.27349
2018-02-27 18:20:00+00:00,91.0,94.0,4.85,7.73,,47.59359,-54.27349
2018-02-27 18:30:00+00:00,96.0,89.0,5.82,8.34,,47.59359,-54.27349
2018-02-27 18:40:00+00:00,92.0,97.0,5.84,8.2,,47.59359,-54.27349
2018-02-27 18:50:00+00:00,91.0,95.0,6.2,9.2,,47.59359,-54.27349
2018-02-27 19:00:00+00:00,86.0,75.0,6.98,8.86,,47.59359,-54.27349
2018-02-27 19:10:00+00:00,87.0,87.0,5.83,7.29,,47.59359,-54.27349
2018-02-27 19:20:00+00:00,87.0,93.0,6.99,8.32,,47.59359,-54.27349
2018-02-27 19:30:00+00:00,84.0,80.0,7.42,8.97,,47.59359,-54.27349
2018-02-27 19:40:00+00:00,83.0,85.0,6.94,9.04,,47.59359,-54.27349
2018-02-27 19:50:00+00:00,87.0,82.0,5.28,8.17,,47.59359,-54.27349
2018-02-27 20:00:00+00:00,86.0,84.0,7.05,8.8,,47.59359,-54.27349
2018-02-27 20:10:00+00:00,89.0,85.0,6.25,8.74,,47.59359,-54.27349
2018-02-27 20:20:00+00:00,85.0,87.0,6.64,8.35,,47.59359,-54.27349
2018-02-27 20:30:00+00:00,88.0,87.0,5.89,7.67,,47.59359,-54.27349
2018-02-27 20:40:00+00:00,92.0,95.0,6.34,9.74,,47.59359,-54.27349
2018-02-27 20:50:00+00:00,93.0,96.0,7.48,15.13,,47.59359,-54.27349
2018-02-27 21:00:00+00:00,100.0,87.0,6.71,14.35,,47.59359,-54.27349
2018-02-27 21:10:00+00:00,92.0,80.0,5.73,11.76,,47.59359,-54.27349
2018-02-27 21:20:00+00:00,93.0,97.0,9.75,14.38,,47.59359,-54.27349
2018-02-27 21:30:00+00:00,90.0,82.0,9.19,14.01,,47.59359,-54.27349
2018-02-27 21:40:00+00:00,88.0,91.0,8.07,13.07,,47.59359,-54.27349
2018-02-27 21:50:00+00:00,90.0,87.0,8.43,13.98,,47.59359,-54.27349
2018-02-27 22:00:00+00:00,87.0,80.0,7.73,14.86,,47.59359,-54.27349
2018-02-27 22:10:00+00:00,86.0,80.0,10.33,15.42,,47.59359,-54.27349
2018-02-27 22:20:00+00:00,88.0,95.0,8.48,13.67,,47.59359,-54.27349
2018-02-27 22:30:00+00:00,87.0,87.0,10.73,14.88,,47.59359,-54.27349
2018-02-27 22:40:00+00:00,85.0,82.0,10.59,14.73,,47.59359,-54.27349
2018-02-27 22:50:00+00:00,85.0,79.0,11.41,15.17,,47.59359,-54.27349
2018-02-27 23:00:00+00:00,85.0,83.0,12.41,15.0,,47.59359,-54.27349
2018-02-27 23:10:00+00:00,81.0,84.0,9.99,13.94,,47.59359,-54.27349
2018-02-27 23:20:00+00:00,69.0,72.0,7.26,8.38,,47.59359,-54.27349
2018-02-27 23:30:00+00:00,74.0,72.0,7.19,8.43,,47.59359,-54.27349
2018-02-27 23:40:00+00:00,76.0,77.0,6.17,7.54,,47.59359,-54.27349
2018-02-27 23:50:00+00:00,78.0,79.0,7.27,7.92,,47.59359,-54.27349
